| time (UTC) | temp C | wind direction | speed KPH | gust KPH | rain 1hr cm | rain 24hr cm | rain mn cm | humidity % | barometer mb |
| 20260505080043 | 15 | 0 | 0.0 | 4.8 | 0.61 | 1.40 | 1.40 | 95 | 1007.1 |
| 20260505074539 | 15 | 191 | 0.0 | 3.2 | 0.61 | 1.17 | 1.17 | 94 | 1005.6 |
| 20260505073049 | 15 | 0 | 0.0 | 1.6 | 0.76 | 0.99 | 0.99 | 94 | 1006.1 |
| 20260505071545 | 15 | 0 | 0.0 | 1.6 | 0.76 | 0.89 | 0.89 | 93 | 1007.8 |
| 20260505070047 | 16 | 0 | 0.0 | 1.6 | 0.69 | 0.76 | 0.76 | 92 | 1007.9 |
| 20260505064540 | 16 | 0 | 0.0 | 3.2 | 0.53 | 0.56 | 0.56 | 91 | 1007.9 |
| 20260505063047 | 16 | 0 | 0.0 | 1.6 | 0.23 | 0.23 | 0.23 | 88 | 1007.3 |
| 20260505061546 | 16 | 0 | 0.0 | 1.6 | 0.13 | 0.13 | 0.13 | 85 | 1006.3 |
| 20260505060051 | 17 | 0 | 0.0 | 6.4 | 0.08 | 0.08 | 0.08 | 82 | 1005.9 |
| 20260505054549 | 18 | 182 | 0.0 | 12.9 | 0.03 | 0.03 | 0.03 | 78 | 1005.5 |
| 20260505053111 | 18 | 121 | 1.6 | 11.3 | 0.00 | 0.00 | 0.00 | 75 | 1005.8 |
| 20260505051549 | 18 | 160 | 0.0 | 8.0 | 0.00 | 0.00 | 0.00 | 73 | 1006.0 |
| 20260505041545 | 19 | 0 | 0.0 | 6.4 | 0.00 | 0.00 | 0.00 | 72 | 1006.0 |
| 20260505040051 | 18 | 0 | 0.0 | 6.4 | 0.00 | 0.00 | 0.00 | 72 | 1006.0 |
| 20260505034601 | 18 | 0 | 0.0 | 4.8 | 0.00 | 0.00 | 0.00 | 73 | 1006.6 |
| 20260505033052 | 18 | 98 | 0.0 | 4.8 | 0.00 | 0.00 | 0.00 | 73 | 1006.7 |
| 20260505031545 | 18 | 0 | 0.0 | 6.4 | 0.00 | 0.00 | 0.00 | 72 | 1006.8 |
| 20260505030046 | 19 | 0 | 0.0 | 4.8 | 0.00 | 0.00 | 0.00 | 71 | 1006.7 |
| 20260505024549 | 19 | 190 | 1.6 | 6.4 | 0.00 | 0.00 | 0.00 | 71 | 1006.6 |
| 20260505023050 | 19 | 0 | 0.0 | 4.8 | 0.00 | 0.00 | 0.00 | 71 | 1006.4 |
| 20260505021544 | 19 | 141 | 0.0 | 6.4 | 0.00 | 0.00 | 0.00 | 70 | 1006.2 |
| 20260505020045 | 19 | 0 | 0.0 | 4.8 | 0.00 | 0.00 | 0.00 | 70 | 1006.1 |
| 20260505014551 | 20 | 0 | 0.0 | 1.6 | 0.00 | 0.00 | 0.00 | 70 | 1006.0 |
| 20260505013105 | 20 | 0 | 0.0 | 0.0 | 0.00 | 0.00 | 0.00 | 68 | 1006.1 |
| 20260505011558 | 21 | 0 | 0.0 | 1.6 | 0.00 | 0.00 | 0.00 | 66 | 1006.0 |
| 20260505010039 | 21 | 0 | 0.0 | 4.8 | 0.00 | 0.00 | 0.00 | 65 | 1005.8 |
| 20260505004547 | 21 | 162 | 0.0 | 4.8 | 0.00 | 0.00 | 0.00 | 63 | 1005.8 |
| 20260505003052 | 22 | 4 | 0.0 | 9.7 | 0.00 | 0.00 | 0.00 | 62 | 1005.7 |
| 20260505001558 | 22 | 0 | 4.8 | 16.1 | 0.00 | 0.00 | 0.00 | 60 | 1005.7 |
| 20260505000100 | 23 | 11 | 1.6 | 14.5 | 0.00 | 0.00 | 0.00 | 59 | 1005.6 |
| 20260504234540 | 23 | 194 | 3.2 | 12.9 | 0.00 | 0.00 | 0.00 | 58 | 1005.6 |
| 20260504233102 | 24 | 235 | 3.2 | 14.5 | 0.00 | 0.00 | 0.00 | 56 | 1005.6 |
| 20260504231546 | 24 | 179 | 1.6 | 12.9 | 0.00 | 0.00 | 0.00 | 56 | 1005.5 |
| 20260504230046 | 25 | 156 | 1.6 | 9.7 | 0.00 | 0.00 | 0.00 | 54 | 1005.5 |
| 20260504224544 | 25 | 174 | 3.2 | 17.7 | 0.00 | 0.00 | 0.00 | 54 | 1005.4 |
| 20260504223044 | 25 | 157 | 1.6 | 14.5 | 0.00 | 0.00 | 0.00 | 55 | 1005.3 |
| 20260504221539 | 25 | 146 | 0.0 | 17.7 | 0.00 | 0.00 | 0.00 | 54 | 1005.4 |
| 20260504220050 | 26 | 126 | 3.2 | 12.9 | 0.00 | 0.00 | 0.00 | 52 | 1005.4 |
| 20260504214542 | 26 | 0 | 4.8 | 12.9 | 0.00 | 0.00 | 0.00 | 51 | 1005.5 |
| 20260504213049 | 26 | 149 | 6.4 | 19.3 | 0.00 | 0.00 | 0.00 | 51 | 1005.4 |
| 20260504211543 | 27 | 122 | 3.2 | 12.9 | 0.00 | 0.00 | 0.00 | 51 | 1005.8 |
| 20260504210043 | 27 | 192 | 1.6 | 11.3 | 0.00 | 0.00 | 0.00 | 53 | 1005.9 |
| 20260504204547 | 27 | 131 | 1.6 | 12.9 | 0.00 | 0.00 | 0.00 | 52 | 1006.1 |
| 20260504203055 | 27 | 128 | 3.2 | 16.1 | 0.00 | 0.00 | 0.00 | 50 | 1006.3 |
| 20260504201546 | 27 | 30 | 1.6 | 16.1 | 0.00 | 0.00 | 0.00 | 51 | 1006.5 |
| 20260504200045 | 27 | 89 | 3.2 | 17.7 | 0.00 | 0.00 | 0.00 | 51 | 1006.7 |
| 20260504194548 | 27 | 63 | 1.6 | 14.5 | 0.00 | 0.00 | 0.00 | 52 | 1007.0 |
| 20260504193043 | 27 | 236 | 3.2 | 14.5 | 0.00 | 0.00 | 0.00 | 50 | 1007.1 |
| 20260504191606 | 26 | 200 | 4.8 | 22.5 | 0.00 | 0.00 | 0.00 | 50 | 1007.0 |
| 20260504190041 | 26 | 215 | 4.8 | 24.1 | 0.00 | 0.00 | 0.00 | 54 | 1006.9 |
| 20260504184539 | 26 | 104 | 6.4 | 19.3 | 0.00 | 0.00 | 0.00 | 51 | 1007.1 |
| 20260504183046 | 26 | 218 | 3.2 | 16.1 | 0.00 | 0.00 | 0.00 | 52 | 1007.2 |
| 20260504181551 | 26 | 156 | 3.2 | 17.7 | 0.00 | 0.00 | 0.00 | 52 | 1007.2 |
| 20260504180044 | 26 | 94 | 3.2 | 17.7 | 0.00 | 0.00 | 0.00 | 52 | 1007.4 |
| 20260504174540 | 26 | 270 | 6.4 | 17.7 | 0.00 | 0.00 | 0.00 | 52 | 1007.5 |
| 20260504173038 | 26 | 22 | 1.6 | 19.3 | 0.00 | 0.00 | 0.00 | 52 | 1007.8 |
| 20260504171546 | 25 | 137 | 4.8 | 17.7 | 0.00 | 0.00 | 0.00 | 52 | 1007.7 |
| 20260504081551 | 16 | 214 | 1.6 | 11.3 | 0.00 | 0.00 | 0.00 | 61 | 1010.7 |